Вернуться в каталог

HULIANWANG DIGUI-176

АктивенНаукаLEO
NORAD 69579·PAYLOAD·🇨🇳 China

Запущен Jun 17, 2026 с Wenchang Space Launch Site

Loading…

Ближайшие Пролёты (ближайшие 24 часа)

TLE

СвежийSource: Space-Track

Эпоха: Sep 14, 2026, 10:03 UTC

1 69579U 26137H   26257.41904583 -.00000089  00000-0  76305-4 0  9994
2 69579  49.9998 275.5975 0000256 325.4405  34.6451 13.29324800 12202

Отслеживайте HULIANWANG DIGUI-176 в реальном времени с AllMySat

Download on the App Store